This is the latest recevied weather packets stored in our database for station/object KE2HEH. If no packets are shown the sender has not sent any weather packets the latest 1 day(s).
| Time | Temp. | Humidity | Pressure | Rain* | Wind** | Luminosity | Snow |
|---|---|---|---|---|---|---|---|
| 1778060600 | 11.67° C | 96% | 1010.8 hPa | 0 mm | 8.05 m/s, 204° | 0 W/m² | - |
| 1778060297 | 11.67° C | 96% | 1011 hPa | 0 mm | 9.83 m/s, 191° | 0 W/m² | - |
| 1778059994 | 11.67° C | 96% | 1011 hPa | 0 mm | 7.15 m/s, 203° | 0 W/m² | - |
| 1778059692 | 11.67° C | 96% | 1011 hPa | 0 mm | 8.05 m/s, 206° | 0 W/m² | - |
| 1778059389 | 11.67° C | 96% | 1010.9 hPa | 0 mm | 7.6 m/s, 223° | 0 W/m² | - |
| 1778059087 | 11.67° C | 96% | 1010.9 hPa | 0 mm | 7.15 m/s, 195° | 0 W/m² | - |
| 1778058784 | 11.67° C | 96% | 1010.9 hPa | 0 mm | 8.05 m/s, 208° | 0 W/m² | - |
| 1778058482 | 11.67° C | 95% | 1011 hPa | 0 mm | 6.71 m/s, 193° | 0 W/m² | - |
| 1778058179 | 12.22° C | 95% | 1011.1 hPa | 0 mm | 8.05 m/s, 206° | 0 W/m² | - |
| 1778057875 | 12.22° C | 95% | 1011.5 hPa | 0 mm | 8.05 m/s, 203° | 0 W/m² | - |
| 1778057571 | 12.22° C | 95% | 1011.2 hPa | 0 mm | 5.81 m/s, 205° | 0 W/m² | - |
| 1778057268 | 12.22° C | 95% | 1011 hPa | 0 mm | 8.05 m/s, 143° | 0 W/m² | - |
| 1778056964 | 12.22° C | 95% | 1011.1 hPa | 0 mm | 7.15 m/s, 186° | 0 W/m² | - |
| 1778056662 | 12.22° C | 95% | 1011.2 hPa | 0 mm | 6.26 m/s, 178° | 0 W/m² | - |
| 1778056359 | 12.22° C | 95% | 1011.2 hPa | 0 mm | 6.71 m/s, 176° | 0 W/m² | - |
| 1778056057 | 12.22° C | 95% | 1011.3 hPa | 0 mm | 8.49 m/s, 200° | 0 W/m² | - |
| 1778055751 | 12.22° C | 95% | 1011.1 hPa | 0 mm | 7.15 m/s, 191° | 0 W/m² | - |
| 1778055450 | 12.22° C | 95% | 1011.3 hPa | 0 mm | 7.6 m/s, 190° | 0 W/m² | - |
| 1778055147 | 12.22° C | 95% | 1011.3 hPa | 0 mm | 8.05 m/s, 211° | 0 W/m² | - |
| 1778054845 | 12.22° C | 95% | 1011.4 hPa | 0 mm | 7.15 m/s, 202° | 0 W/m² | - |
| 1778054541 | 12.22° C | 95% | 1011.3 hPa | 0 mm | 8.49 m/s, 178° | 0 W/m² | - |
| 1778054239 | 12.22° C | 95% | 1011.2 hPa | 0 mm | 8.05 m/s, 196° | 0 W/m² | - |
| 1778053935 | 12.22° C | 95% | 1011.4 hPa | 0 mm | 8.05 m/s, 198° | 0 W/m² | - |
| 1778053634 | 12.22° C | 94% | 1011.5 hPa | 0 mm | 6.26 m/s, 195° | 0 W/m² | - |
| 1778053330 | 12.22° C | 94% | 1011.5 hPa | 0 mm | 8.05 m/s, 202° | 0 W/m² | - |
* Rain latest hour (hover to see other rain measurements)
** Current wind speed in m/s (hover to see current wind gust speed)